Location: Castelbiague
(43.0361°N, 0.9246°E)
Time: 21:18:20
(UTC+00:00)

deb Kosmos-1375 - Visible Passes

Search period start: 24 January 2022 00:00
Search period end: 03 February 2022 00:00
Orbit: 782 x 829 km, 65.7° (Epoch: 24 January)

Date Brightness Start Highest point End Pass type
(mag) Time Alt. Az. Time Alt. Az. Time Alt. Az.
24 Jan ? 18:08:38 10° SW 18:13:57 57° NW 18:19:22 10° NNE visible
24 Jan ? 19:56:19 10° WNW 19:59:05 14° NNW 20:00:56 12° N visible
25 Jan ? 17:42:18 10° SW 17:47:41 70° NW 17:53:11 10° NNE visible
25 Jan ? 19:29:20 10° WNW 19:32:37 16° NW 19:35:46 10° N visible
26 Jan ? 19:02:27 10° W 19:06:10 18° NW 19:09:55 10° N visible
27 Jan ? 18:35:39 10° W 18:39:44 21° NW 18:43:52 10° N visible
28 Jan ? 18:08:55 10° W 18:13:19 24° NW 18:17:48 10° NNE visible
29 Jan ? 17:42:15 10° WSW 17:46:56 29° NW 17:51:41 10° NNE visible
31 Jan ? 18:38:22 10° NW 18:39:42 11° NNW 18:41:02 10° NNW visible
01 Feb ? 18:10:58 10° NW 18:13:10 12° NNW 18:15:24 10° N visible
02 Feb ? 17:43:50 10° WNW 17:46:40 14° NNW 17:49:32 10° N visible
